Location: Canyon City
(32.5951°N, 116.5278°W)
Time: 01:57:31
(UTC+00:00)

Cosmos 1763 Rocket - Pass Details

Date: 08 September 2024
Orbit: 730 x 776 km, 74.0° (Epoch: 03 October)

Event Time Altitude Azimuth Distance (km) Brightness Sun altitude
Rises 12:18:57 0° 342° (NNW) 3,185 6.7 -14.6°
Reaches altitude 10° 12:21:17 10° 341° (NNW) 2,265 5.9 -14.1°
Maximum altitude 12:26:25 80° 255° (WSW) 768 3.4 -13.1°
Drops below altitude 10° 12:31:36 10° 169° (SSE) 2,283 5.9 -12.0°
Sets 12:33:58 0° 168° (SSE) 3,212 6.7 -11.6°
